User: anonymous   Login
Location: Owatonna
(44.0840°N, 93.2260°W)
Time: 23:14:57
(UTC-05:00)
Language:

Cosmos 839 Rocket - Orbit

View from above orbital plane
View from above orbital plane
View from above satellite
View from above satellite

Ground track
Ground track

The orbit data is extracted from the following two-line orbital elements,

1  9013U 76067B   16120.47196749 -.00000051 +00000-0 +15756-4 0  9991
2  9013 065.8647 089.6158 0720610 235.5407 287.8496 12.35322974795306
Epoch (UTC): 29 April 2016 11:19:37
Eccentricity: 0.0720610
inclination: 65.8647°
perigee height: 957 km
apogee height: 2096 km
right ascension of ascending node: 89.6158°
argument of perigee: 235.5407°
revolutions per day: 12.35322974
mean anomaly at epoch: 287.8496°
orbit number at epoch: 79530

The dashed part of the orbit path shows where the satellite is in the earth's shadow,  

DLR